"Pseudo-MPEC" for C0Z7UM2

Created 2019 Sep 12 12:07:13 UT using Find_Orb

Click here for an explanation of pseudo-MPECs

 
 Astrometry: 
     C0Z7UM2  C2019 09 07.47960 03 00 25.00 +19 02 46.4    ~97CM 22.2 GVNEOCPG96
     C0Z7UM2  C2019 09 07.48651 03 00 25.39 +19 02 26.1    ~97CM 22.7 GVNEOCPG96
     C0Z7UM2  C2019 09 07.49081 03 00 25.61 +19 02 13.7    ~97CM 21.9 GVNEOCPG96
     C0Z7UM2  C2019 09 07.49510 03 00 25.91 +19 02 01.1    ~97CM 22.1 GVNEOCPG96

Station data:
(G96) Mt. Lemmon Survey  (N32.442754 W110.788720)  US/Arizona.  Observers T.
   A. Pruyne, B. M. Africano, E. J. Christensen, G. A. Farneth, D. C. Fuls,
   A. R. Gibbs, A. D. Grauer, H. Groeller, J. A. Johnson, R. A. Kowalski, S.
   M. Larson, G. J. Leonard, D. Rankin, R. L. Seaman, F. C. Shelly. 1.5-m
   reflector + 10K CCD.

Orbital elements:  C0Z7UM2
   Perihelion 2019 May 23.708553 +/- 66.6 TT = 17:00:19 (JD 2458627.208553)
Epoch 2019 Sep  7.0 TT = JDT 2458733.5   Earth MOID: 0.3329   Ma: 0.0452
M  62.72654022 +/- 100              (J2000 ecliptic)          AutoNEOCP
n   0.59013723 +/- 0.621            Peri.  100.83099 +/- 100
a   1.40766951 +/- 0.979            Node   186.96992 +/- 9
e   0.1350372 +/- 0.262             Incl.   33.62351 +/- 48
P   1.67/610.02d           H 21.6   G  0.15   U 12.4  SR
q 1.21758165 +/- 0.526    Q 1.59775737 +/- 15.4
From 4 observations 2019 Sept. 7 (22.3 min); mean residual 0".20
Residuals in arcseconds: 
190907 G96  .12+  .04+    190907 G96  .42-  .06+    
190907 G96  .01-  .09-    190907 G96  .31+  .00     

Ephemerides (geocentric):
Date (UTC) HH   RA              Dec         delta   r     elong  mag " sig PA
---- -- -- --  -------------   -----------  ------ ------ -----  --- ---- ---
2019 09 12 12  03 05 05.178   +14 42 42.05  .52313 1.3533 121.2 22.4  56d  15
2019 09 12 13  03 05 07.156   +14 40 24.48  .52293 1.3534 121.2 22.4  56d  15
2019 09 12 14  03 05 09.128   +14 38 06.78  .52273 1.3535 121.2 22.4  57d  15
2019 09 12 15  03 05 11.094   +14 35 48.94  .52253 1.3536 121.3 22.4  57d  15
2019 09 12 16  03 05 13.055   +14 33 30.98  .52233 1.3536 121.3 22.4  57d  14
2019 09 12 17  03 05 15.010   +14 31 12.89  .52214 1.3537 121.4 22.4  57d  14
2019 09 12 18  03 05 16.958   +14 28 54.66  .52194 1.3538 121.4 22.4  57d  14
2019 09 12 19  03 05 18.901   +14 26 36.31  .52174 1.3539 121.4 22.4  58d  14
2019 09 12 20  03 05 20.839   +14 24 17.82  .52154 1.3540 121.5 22.4  58d  14
2019 09 12 21  03 05 22.770   +14 21 59.21  .52135 1.3540 121.5 22.4  58d  14
2019 09 12 22  03 05 24.695   +14 19 40.46  .52115 1.3541 121.6 22.4  58d  14
2019 09 12 23  03 05 26.615   +14 17 21.59  .52095 1.3542 121.6 22.4  58d  14
2019 09 13 00  03 05 28.528   +14 15 02.59  .52076 1.3543 121.7 22.4  58d  13
2019 09 13 01  03 05 30.436   +14 12 43.45  .52056 1.3544 121.7 22.4  58d  13
2019 09 13 02  03 05 32.338   +14 10 24.19  .52037 1.3545 121.7 22.4  58d  13
2019 09 13 03  03 05 34.234   +14 08 04.80  .52017 1.3545 121.8 22.4  58d  13
2019 09 13 04  03 05 36.124   +14 05 45.27  .51998 1.3546 121.8 22.4  58d  13
2019 09 13 05  03 05 38.008   +14 03 25.62  .51978 1.3547 121.9 22.4  58d  13
2019 09 13 06  03 05 39.886   +14 01 05.84  .51959 1.3548 121.9 22.4  58d  13
2019 09 13 07  03 05 41.758   +13 58 45.93  .51939 1.3549 122.0 22.4  58d  13
2019 09 13 08  03 05 43.625   +13 56 25.89  .51920 1.3549 122.0 22.4  58d  14
2019 09 13 09  03 05 45.485   +13 54 05.72  .51901 1.3550 122.0 22.4  59d  14
2019 09 13 10  03 05 47.340   +13 51 45.42  .51881 1.3551 122.1 22.4  59d  14
2019 09 13 11  03 05 49.189   +13 49 25.00  .51862 1.3552 122.1 22.4  59d  14
2019 09 13 12  03 05 51.031   +13 47 04.44  .51843 1.3553 122.2 22.4  59d  14
2019 09 13 13  03 05 52.868   +13 44 43.76  .51824 1.3554 122.2 22.4  60d  15
2019 09 13 14  03 05 54.699   +13 42 22.94  .51805 1.3554 122.3 22.4  60d  15
2019 09 13 15  03 05 56.524   +13 40 02.00  .51785 1.3555 122.3 22.4  61d  15
2019 09 13 16  03 05 58.343   +13 37 40.93  .51766 1.3556 122.3 22.4  61d  15
2019 09 13 17  03 06 00.156   +13 35 19.73  .51747 1.3557 122.4 22.3  61d  15
2019 09 13 18  03 06 01.964   +13 32 58.41  .51728 1.3558 122.4 22.3  62d  15
2019 09 13 19  03 06 03.765   +13 30 36.95  .51709 1.3558 122.5 22.3  62d  15
2019 09 13 20  03 06 05.560   +13 28 15.37  .51690 1.3559 122.5 22.3  62d  15
2019 09 13 21  03 06 07.349   +13 25 53.66  .51671 1.3560 122.5 22.3  63d  15
2019 09 13 22  03 06 09.133   +13 23 31.82  .51652 1.3561 122.6 22.3  63d  15
2019 09 13 23  03 06 10.910   +13 21 09.85  .51633 1.3562 122.6 22.3  63d  14
2019 09 14 00  03 06 12.682   +13 18 47.76  .51615 1.3562 122.7 22.3  63d  14
2019 09 14 01  03 06 14.447   +13 16 25.54  .51596 1.3563 122.7 22.3  63d  14
2019 09 14 02  03 06 16.207   +13 14 03.19  .51577 1.3564 122.8 22.3  63d  14
2019 09 14 03  03 06 17.960   +13 11 40.71  .51558 1.3565 122.8 22.3  64d  14
2019 09 14 04  03 06 19.708   +13 09 18.10  .51539 1.3566 122.8 22.3  64d  14
2019 09 14 05  03 06 21.450   +13 06 55.37  .51521 1.3567 122.9 22.3  64d  14
2019 09 14 06  03 06 23.185   +13 04 32.51  .51502 1.3567 122.9 22.3  64d  14
2019 09 14 07  03 06 24.915   +13 02 09.53  .51483 1.3568 123.0 22.3  64d  14
2019 09 14 08  03 06 26.639   +12 59 46.41  .51465 1.3569 123.0 22.3  64d  14
2019 09 14 09  03 06 28.357   +12 57 23.17  .51446 1.3570 123.1 22.3  64d  14
2019 09 14 10  03 06 30.068   +12 54 59.81  .51428 1.3571 123.1 22.3  65d  14
2019 09 14 11  03 06 31.774   +12 52 36.31  .51409 1.3571 123.1 22.3  65d  14